Location: Kermapucano
(48.0667°N, 3.3000°W)
Time: 20:03:06
(UTC+00:00)

SKYMED 2 - Pass Details

Date: 29 November 2020
Orbit: 621 x 623 km, 97.9° (Epoch: 27 January)

Event Time Altitude Azimuth Distance (km) Brightness Sun altitude
Rises 05:48:18 0° 182° (S) 2,890 7.1 -18.0°
Reaches altitude 10° 05:50:33 10° 189° (S) 1,989 6.2 -17.7°
Maximum altitude 05:54:42 44° 261° (W) 868 3.9 -17.0°
Enters shadow 05:56:51 25° 319° (NW) 1,277 4.7 -16.6°
